FW7086 Weather Reports


Display with metric or nautical units.
time (UTC)temp
F
wind
direction
speed
MPH
gust
MPH
rain 1hr
in
rain 24hr
in
rain mn
in
humidity
%
barometer
mb
20260903130846 84 212 1.0 2.0 0.00 0.00 0.00 72 1015.4
20260903130341 83 162 2.0 2.0 0.00 0.00 0.00 73 1015.6
20260903125839 83 167 2.0 4.0 0.00 0.00 0.00 73 1015.6
20260903125335 83 196 0.0 0.0 0.00 0.00 0.00 74 1015.6
20260903124834 83 212 2.0 3.0 0.00 0.00 0.00 74 1015.4
20260903124330 82 175 2.0 2.0 0.00 0.00 0.00 75 1015.5
20260903123828 82 177 2.0 3.0 0.00 0.00 0.00 75 1015.4
20260903123323 82 202 3.0 3.0 0.00 0.00 0.00 76 1015.6
20260903122821 81 150 2.0 2.0 0.00 0.00 0.00 77 1015.7
20260903122316 81 159 2.0 3.0 0.00 0.00 0.00 77 1015.5
20260903121815 82 168 1.0 1.0 0.00 0.00 0.00 76 1015.8
20260903121311 82 176 2.0 2.0 0.00 0.00 0.00 76 1015.6
20260903120807 81 218 1.0 1.0 0.00 0.00 0.00 77 1015.6
20260903120306 81 151 2.0 2.0 0.00 0.00 0.00 77 1015.7
20260903115804 81 140 0.0 0.0 0.00 0.00 0.00 77 1015.6
20260903115300 81 158 1.0 1.0 0.00 0.00 0.00 77 1015.4
20260903114759 81 149 4.0 4.0 0.00 0.00 0.00 77 1015.6
20260903114255 81 207 1.0 2.0 0.00 0.00 0.00 77 1015.5
20260903113750 81 208 2.0 3.0 0.00 0.00 0.00 77 1015.5
20260903113246 81 201 3.0 3.0 0.00 0.00 0.00 77 1015.5
20260903112742 81 115 2.0 3.0 0.00 0.00 0.00 78 1015.4
20260903112237 81 157 3.0 3.0 0.00 0.00 0.00 78 1015.3
20260903111736 81 224 2.0 2.0 0.00 0.00 0.00 77 1015.4
20260903111231 81 210 2.0 2.0 0.00 0.00 0.00 77 1015.3
20260903110727 81 151 2.0 3.0 0.00 0.00 0.00 77 1015.3
20260903110223 81 149 2.0 3.0 0.00 0.00 0.00 77 1015.5
20260903105722 81 234 2.0 3.0 0.00 0.00 0.00 78 1015.5
20260903105218 81 231 1.0 2.0 0.00 0.00 0.00 77 1015.5
20260903104717 81 293 1.0 1.0 0.00 0.00 0.00 77 1015.3
20260903104212 81 270 3.0 3.0 0.00 0.00 0.00 77 1015.5
20260903103708 81 199 2.0 3.0 0.00 0.00 0.00 77 1015.3
20260903103204 81 189 2.0 3.0 0.00 0.00 0.00 77 1015.3
20260903102659 81 197 1.0 1.0 0.00 0.00 0.00 78 1015.3
20260903102153 81 204 2.0 3.0 0.00 0.00 0.00 78 1015.1
20260903101652 81 144 1.0 2.0 0.00 0.00 0.00 78 1015.1
20260903101148 81 265 2.0 4.0 0.00 0.00 0.00 78 1015.2
20260903100643 81 204 3.0 3.0 0.00 0.00 0.00 78 1015.2
20260903100142 81 165 2.0 2.0 0.00 0.00 0.00 78 1015.2
20260903095640 81 199 1.0 1.0 0.00 0.00 0.00 78 1015.3
20260903095140 81 189 1.0 1.0 0.00 0.00 0.00 78 1015.2
20260903094635 81 179 1.0 1.0 0.00 0.00 0.00 78 1015.2
20260903094130 81 148 1.0 1.0 0.00 0.00 0.00 79 1015.3
20260903093625 81 290 0.0 0.0 0.00 0.00 0.00 79 1015.1
20260903093121 81 227 1.0 2.0 0.00 0.00 0.00 80 1014.9
20260903092620 81 150 1.0 2.0 0.00 0.00 0.00 80 1015.3
20260903092115 81 188 1.0 1.0 0.00 0.00 0.00 81 1015.1
20260903091613 81 133 2.0 2.0 0.00 0.00 0.00 82 1015.1
20260903091108 81 157 0.0 0.0 0.00 0.00 0.00 82 1015.1
20260903090604 81 168 0.0 0.0 0.00 0.00 0.00 82 1015.0
20260903085601 81 176 1.0 1.0 0.00 0.00 0.00 81 1015.1
20260903085057 81 179 1.0 1.0 0.00 0.00 0.00 81 1014.8
20260903084555 81 152 1.0 1.0 0.00 0.00 0.00 81 1015.2
20260903084050 81 144 1.0 2.0 0.00 0.00 0.00 80 1015.0
20260903083546 82 161 0.0 0.0 0.00 0.00 0.00 80 1015.1
20260903083046 82 165 2.0 2.0 0.00 0.00 0.00 79 1015.0
20260903082540 82 189 1.0 1.0 0.00 0.00 0.00 79 1015.3
20260903082035 82 160 1.0 1.0 0.00 0.00 0.00 79 1015.2
20260903081531 82 166 3.0 3.0 0.00 0.00 0.00 79 1015.2
20260903081027 81 159 0.0 0.0 0.00 0.00 0.00 80 1015.1
20260903080523 82 161 0.0 1.0 0.00 0.00 0.00 80 1015.0
20260903080019 82 225 1.0 1.0 0.00 0.00 0.00 80 1014.9
20260903075514 82 146 0.0 0.0 0.00 0.00 0.00 81 1015.0
20260903075009 81 191 0.0 0.0 0.00 0.00 0.00 81 1015.0
20260903074508 82 198 0.0 1.0 0.00 0.00 0.00 81 1015.1
20260903074003 82 165 0.0 0.0 0.00 0.00 0.00 81 1015.0
20260903073458 82 202 0.0 0.0 0.00 0.00 0.00 80 1015.2
20260903072954 82 183 1.0 1.0 0.00 0.00 0.00 80 1015.0
20260903072450 82 197 2.0 2.0 0.00 0.00 0.00 80 1015.0
20260903071947 82 137 0.0 0.0 0.00 0.00 0.00 81 1014.9
20260903071443 82 163 0.0 0.0 0.00 0.00 0.00 81 1015.1
20260903070938 82 168 2.0 2.0 0.00 0.00 0.00 81 1015.0
20260903070437 82 163 0.0 0.0 0.00 0.00 0.00 82 1014.9
20260903065932 82 160 3.0 3.0 0.00 0.00 0.00 82 1015.0
20260903065432 82 159 0.0 0.0 0.00 0.00 0.00 83 1015.1
20260903064932 82 170 0.0 1.0 0.00 0.00 0.00 82 1014.9
20260903064426 82 152 0.0 0.0 0.00 0.00 0.00 82 1015.2
20260903063922 82 158 0.0 0.0 0.00 0.00 0.00 81 1015.1
20260903063418 82 152 1.0 1.0 0.00 0.00 0.00 81 1015.2
20260903062913 82 239 0.0 1.0 0.00 0.00 0.00 81 1015.2
20260903062413 83 226 1.0 1.0 0.00 0.00 0.00 80 1015.1
20260903061909 83 153 0.0 1.0 0.00 0.00 0.00 80 1015.1
20260903061408 83 138 1.0 1.0 0.00 0.00 0.00 79 1015.2
20260903060904 83 162 0.0 0.0 0.00 0.00 0.00 79 1015.3
20260903060404 83 163 0.0 0.0 0.00 0.00 0.00 79 1015.3
20260903055902 83 151 0.0 0.0 0.00 0.00 0.00 80 1015.1
20260903055400 83 136 0.0 0.0 0.00 0.00 0.00 80 1015.5
20260903054856 83 136 0.0 0.0 0.00 0.00 0.00 79 1015.3
20260903054355 83 165 0.0 0.0 0.00 0.00 0.00 79 1015.1
20260903053852 83 162 0.0 0.0 0.00 0.00 0.00 79 1015.3
20260903053346 83 166 0.0 0.0 0.00 0.00 0.00 79 1015.0
20260903052843 83 153 0.0 0.0 0.00 0.00 0.00 79 1015.1
20260903052338 83 188 0.0 0.0 0.00 0.00 0.00 79 1015.0
20260903051834 83 164 0.0 1.0 0.00 0.00 0.00 79 1015.1
20260903051329 83 231 1.0 1.0 0.00 0.00 0.00 79 1014.9
20260903050825 84 164 1.0 1.0 0.00 0.00 0.00 78 1015.0
20260903050323 84 189 0.0 0.0 0.00 0.00 0.00 78 1015.1
20260903045819 84 148 2.0 2.0 0.00 0.00 0.00 78 1015.1
20260903045314 84 166 1.0 2.0 0.00 0.00 0.00 78 1014.9
20260903044811 84 182 1.0 2.0 0.00 0.00 0.00 78 1014.9
20260903044306 84 175 0.0 0.0 0.00 0.00 0.00 78 1014.9
20260903043802 84 159 1.0 1.0 0.00 0.00 0.00 78 1015.0
20260903043302 84 162 1.0 1.0 0.00 0.00 0.00 78 1015.0
20260903042801 84 142 1.0 1.0 0.00 0.00 0.00 78 1014.9
20260903042256 84 184 1.0 1.0 0.00 0.00 0.00 78 1015.1
20260903041753 84 163 1.0 1.0 0.00 0.00 0.00 78 1015.1
20260903041249 84 174 1.0 1.0 0.00 0.00 0.00 77 1015.1
20260903040749 85 222 2.0 2.0 0.00 0.00 0.00 77 1014.9
20260903040248 85 183 0.0 1.0 0.00 0.00 0.00 77 1014.9
20260903035745 85 187 1.0 2.0 0.00 0.00 0.00 76 1014.8
20260903035240 85 233 3.0 4.0 0.00 0.00 0.00 76 1014.7
20260903034740 85 184 2.0 3.0 0.00 0.00 0.00 75 1014.7
20260903034235 85 171 0.0 0.0 0.00 0.00 0.00 76 1014.9
20260903033730 85 330 0.0 1.0 0.00 0.00 0.00 75 1014.8
20260903033225 86 265 0.0 1.0 0.00 0.00 0.00 74 1014.8
20260903032720 86 354 0.0 0.0 0.00 0.00 0.00 74 1014.8
20260903032216 86 215 1.0 1.0 0.00 0.00 0.00 73 1014.7
20260903031712 86 168 1.0 1.0 0.00 0.00 0.00 73 1014.5
20260903031211 86 187 2.0 3.0 0.00 0.00 0.00 72 1014.6
20260903030707 86 198 1.0 2.0 0.00 0.00 0.00 73 1014.5
20260903030203 86 187 1.0 1.0 0.00 0.00 0.00 72 1014.6
20260903025657 87 185 1.0 1.0 0.00 0.00 0.00 72 1014.9
20260903025153 87 181 2.0 2.0 0.00 0.00 0.00 72 1014.7
20260903024648 87 162 0.0 1.0 0.00 0.00 0.00 72 1014.9
20260903024147 87 186 1.0 1.0 0.00 0.00 0.00 72 1014.9
20260903023643 87 208 1.0 1.0 0.00 0.00 0.00 71 1014.8
20260903023138 87 166 1.0 2.0 0.00 0.00 0.00 71 1014.8
20260903022637 87 163 2.0 2.0 0.00 0.00 0.00 71 1014.7
20260903022137 87 158 0.0 1.0 0.00 0.00 0.00 71 1014.8
20260903021632 87 249 1.0 1.0 0.00 0.00 0.00 71 1014.8
20260903021131 88 165 0.0 0.0 0.00 0.00 0.00 70 1014.6
20260903020627 88 181 0.0 0.0 0.00 0.00 0.00 69 1014.8
20260903020127 88 141 2.0 3.0 0.00 0.00 0.00 69 1014.5
20260903015623 88 171 2.0 3.0 0.00 0.00 0.00 69 1014.6
20260903015119 88 189 2.0 2.0 0.00 0.00 0.00 68 1014.4
20260903014618 88 142 0.0 0.0 0.00 0.00 0.00 68 1014.5
20260903014118 88 194 1.0 2.0 0.00 0.00 0.00 68 1014.5
20260903013612 88 160 2.0 2.0 0.00 0.00 0.00 68 1014.5
20260903013107 88 152 1.0 1.0 0.00 0.00 0.00 67 1014.3
20260903012606 89 161 0.0 0.0 0.00 0.00 0.00 67 1014.4
20260903012105 89 167 0.0 0.0 0.00 0.00 0.00 67 1014.4
20260903011605 89 146 3.0 4.0 0.00 0.00 0.00 66 1014.3
20260903011105 89 157 3.0 3.0 0.00 0.00 0.00 66 1013.9
20260903010601 89 155 3.0 3.0 0.00 0.00 0.00 66 1014.0
20260903010059 89 169 2.0 2.0 0.00 0.00 0.00 66 1014.1
20260903005559 89 154 2.0 3.0 0.00 0.00 0.00 66 1014.1
20260903005055 90 186 2.0 3.0 0.00 0.00 0.00 66 1013.7
20260903004555 90 166 0.0 1.0 0.00 0.00 0.00 65 1013.9
20260903004051 90 197 4.0 6.0 0.00 0.00 0.00 65 1013.8
20260903003546 90 212 2.0 3.0 0.00 0.00 0.00 64 1013.7
20260903003042 90 192 4.0 6.0 0.00 0.00 0.00 64 1013.9
20260903002537 91 176 3.0 3.0 0.00 0.00 0.00 64 1014.0
20260903002036 91 173 3.0 6.0 0.00 0.00 0.00 63 1013.9
20260903001531 91 202 1.0 2.0 0.00 0.00 0.00 63 1013.8
20260903001031 91 170 1.0 1.0 0.00 0.00 0.00 63 1013.9
20260903000527 91 176 5.0 7.0 0.00 0.00 0.00 62 1014.0
20260903000026 91 161 4.0 4.0 0.00 0.00 0.00 62 1014.0
20260902235526 91 213 3.0 4.0 0.00 0.00 0.00 62 1014.0
20260902235021 92 157 5.0 7.0 0.00 0.00 0.00 62 1014.2
20260902234521 92 189 4.0 7.0 0.00 0.00 0.00 61 1014.0
20260902234019 92 159 2.0 3.0 0.00 0.00 0.00 61 1013.9
20260902233514 93 190 2.0 2.0 0.00 0.00 0.00 60 1014.1
20260902233009 93 174 1.0 2.0 0.00 0.00 0.00 59 1014.1
20260902232508 93 246 2.0 3.0 0.00 0.00 0.00 58 1013.8
20260902232003 93 236 4.0 6.0 0.00 0.00 0.00 57 1013.9
20260902231457 94 178 3.0 3.0 0.00 0.00 0.00 56 1014.0
20260902230952 94 180 3.0 4.0 0.00 0.00 0.00 55 1014.0
20260902230451 94 235 2.0 3.0 0.00 0.00 0.00 55 1014.0
20260902225950 94 216 4.0 4.0 0.00 0.00 0.00 54 1013.9
20260902225446 95 323 2.0 3.0 0.00 0.00 0.00 53 1014.1
20260902224945 95 165 2.0 3.0 0.00 0.00 0.00 53 1014.0
20260902224444 95 164 4.0 4.0 0.00 0.00 0.00 53 1014.1
20260902223941 95 155 1.0 2.0 0.00 0.00 0.00 54 1014.1
20260902223436 96 175 4.0 6.0 0.00 0.00 0.00 51 1014.0
20260902222936 96 261 2.0 2.0 0.00 0.00 0.00 50 1014.1
20260902222434 96 283 2.0 2.0 0.00 0.00 0.00 50 1014.2
20260902221934 97 236 5.0 8.0 0.00 0.00 0.00 49 1014.1
20260902221433 96 24 2.0 2.0 0.00 0.00 0.00 51 1014.1
20260902220930 97 288 4.0 6.0 0.00 0.00 0.00 49 1014.3
20260902220429 97 281 0.0 1.0 0.00 0.00 0.00 49 1014.2
20260902215924 96 245 4.0 4.0 0.00 0.00 0.00 49 1014.1
20260902215420 96 228 2.0 3.0 0.00 0.00 0.00 49 1014.3
20260902214916 96 165 3.0 6.0 0.00 0.00 0.00 48 1014.2
20260902214414 97 262 2.0 2.0 0.00 0.00 0.00 47 1014.3
20260902213909 97 271 2.0 3.0 0.00 0.00 0.00 46 1014.4
20260902213405 97 228 1.0 2.0 0.00 0.00 0.00 47 1014.4
20260902212903 98 212 2.0 2.0 0.00 0.00 0.00 47 1014.5
20260902212400 97 312 1.0 2.0 0.00 0.00 0.00 48 1014.4
20260902211856 97 251 4.0 7.0 0.00 0.00 0.00 48 1014.3
20260902211352 97 214 5.0 6.0 0.00 0.00 0.00 48 1014.4
20260902210847 97 149 2.0 2.0 0.00 0.00 0.00 47 1014.4
20260902210346 98 160 3.0 6.0 0.00 0.00 0.00 45 1014.5
20260902205845 98 171 2.0 2.0 0.00 0.00 0.00 46 1014.5
20260902205340 98 200 2.0 2.0 0.00 0.00 0.00 46 1014.4
20260902204836 98 247 3.0 3.0 0.00 0.00 0.00 47 1014.5
20260902204335 98 317 2.0 4.0 0.00 0.00 0.00 46 1014.5
20260902203831 98 231 6.0 9.0 0.00 0.00 0.00 45 1014.5
20260902203326 98 38 4.0 7.0 0.00 0.00 0.00 45 1014.5
20260902202825 97 204 4.0 7.0 0.00 0.00 0.00 46 1014.5
20260902202322 98 190 4.0 6.0 0.00 0.00 0.00 46 1014.4
20260902201819 98 253 3.0 3.0 0.00 0.00 0.00 46 1014.6
20260902201318 98 250 3.0 4.0 0.00 0.00 0.00 45 1014.6
20260902200814 98 187 5.0 8.0 0.00 0.00 0.00 45 1014.6
20260902200308 98 22 1.0 2.0 0.00 0.00 0.00 46 1014.5
20260902195804 98 197 3.0 6.0 0.00 0.00 0.00 45 1014.8
20260902195306 98 216 3.0 4.0 0.00 0.00 0.00 45 1014.7
20260902194758 98 129 3.0 4.0 0.00 0.00 0.00 45 1014.7
20260902194253 98 199 3.0 3.0 0.00 0.00 0.00 44 1014.8
20260902193748 96 241 4.0 6.0 0.00 0.00 0.00 46 1014.8
20260902193244 96 210 2.0 4.0 0.00 0.00 0.00 47 1014.8
20260902192742 96 216 3.0 3.0 0.00 0.00 0.00 49 1014.9
20260902192242 98 177 6.0 9.0 0.00 0.00 0.00 46 1014.8
20260902191736 99 195 5.0 6.0 0.00 0.00 0.00 47 1015.0
20260902191236 98 146 0.0 1.0 0.00 0.00 0.00 46 1015.0
20260902190732 97 213 4.0 6.0 0.00 0.00 0.00 47 1014.8
20260902190231 97 142 12.0 14.0 0.00 0.00 0.00 47 1015.1
20260902185727 97 223 4.0 7.0 0.00 0.00 0.00 47 1015.1
20260902185223 97 194 3.0 4.0 0.00 0.00 0.00 47 1015.1
20260902184718 97 133 2.0 3.0 0.00 0.00 0.00 47 1015.4
20260902184214 97 166 3.0 4.0 0.00 0.00 0.00 47 1015.2
20260902183709 98 239 2.0 3.0 0.00 0.00 0.00 47 1015.1
20260902183206 97 162 2.0 3.0 0.00 0.00 0.00 46 1015.2
20260902182701 96 166 6.0 7.0 0.00 0.00 0.00 46 1015.1
20260902182158 96 174 2.0 4.0 0.00 0.00 0.00 47 1015.4
20260902181653 96 253 5.0 6.0 0.00 0.00 0.00 48 1015.3
20260902181148 96 188 4.0 4.0 0.00 0.00 0.00 48 1015.4
20260902180648 96 173 0.0 1.0 0.00 0.00 0.00 48 1015.4
20260902180143 96 274 3.0 7.0 0.00 0.00 0.00 49 1015.5
20260902175643 96 224 3.0 4.0 0.00 0.00 0.00 49 1015.4
20260902175139 96 258 2.0 2.0 0.00 0.00 0.00 51 1015.3
20260902174635 95 197 4.0 7.0 0.00 0.00 0.00 50 1015.4
20260902174131 96 176 3.0 3.0 0.00 0.00 0.00 51 1015.4
20260902173626 96 200 2.0 2.0 0.00 0.00 0.00 51 1015.5
20260902173121 95 171 2.0 4.0 0.00 0.00 0.00 50 1015.6
20260902172614 96 157 2.0 3.0 0.00 0.00 0.00 50 1015.6
20260902172108 95 143 0.0 1.0 0.00 0.00 0.00 51 1015.5
20260902171604 95 207 3.0 6.0 0.00 0.00 0.00 51 1015.7
20260902171100 94 309 0.0 0.0 0.00 0.00 0.00 53 1015.7
20260902170555 94 197 5.0 7.0 0.00 0.00 0.00 54 1015.7
20260902170051 93 128 2.0 3.0 0.00 0.00 0.00 54 1015.8
20260902165550 93 26 2.0 2.0 0.00 0.00 0.00 55 1016.1
20260902165045 92 79 3.0 3.0 0.00 0.00 0.00 54 1016.2
20260902164541 93 176 4.0 6.0 0.00 0.00 0.00 54 1016.1
20260902164039 92 184 4.0 6.0 0.00 0.00 0.00 56 1016.1
20260902163535 92 263 1.0 1.0 0.00 0.00 0.00 58 1016.0
20260902163033 92 221 1.0 2.0 0.00 0.00 0.00 57 1016.2
20260902162533 91 274 1.0 1.0 0.00 0.00 0.00 57 1016.2
20260902162028 92 157 5.0 7.0 0.00 0.00 0.00 58 1016.2
20260902161523 92 170 2.0 2.0 0.00 0.00 0.00 58 1016.3
20260902161019 91 187 0.0 1.0 0.00 0.00 0.00 57 1016.3
20260902160515 91 181 2.0 3.0 0.00 0.00 0.00 58 1016.1
20260902160015 91 226 4.0 4.0 0.00 0.00 0.00 59 1015.9
20260902155508 90 256 0.0 1.0 0.00 0.00 0.00 61 1016.2
20260902155007 89 172 1.0 1.0 0.00 0.00 0.00 60 1016.3
20260902154502 89 202 3.0 6.0 0.00 0.00 0.00 60 1016.4
20260902153957 89 173 2.0 2.0 0.00 0.00 0.00 62 1016.7
20260902153455 89 231 6.0 8.0 0.00 0.00 0.00 63 1016.3
20260902152951 89 201 2.0 3.0 0.00 0.00 0.00 63 1016.4
20260902152447 89 335 0.0 1.0 0.00 0.00 0.00 62 1016.4
20260902151943 89 292 4.0 6.0 0.00 0.00 0.00 61 1016.4
20260902151439 89 2 1.0 1.0 0.00 0.00 0.00 63 1016.2
20260902150938 88 320 2.0 2.0 0.00 0.00 0.00 62 1016.1
20260902150434 89 316 0.0 0.0 0.00 0.00 0.00 62 1016.2
20260902145934 88 28 1.0 1.0 0.00 0.00 0.00 63 1016.3
20260902145429 88 4 1.0 1.0 0.00 0.00 0.00 64 1016.3
20260902144924 87 45 0.0 1.0 0.00 0.00 0.00 65 1016.4
20260902144420 87 158 1.0 2.0 0.00 0.00 0.00 65 1016.4
20260902143920 87 8 0.0 0.0 0.00 0.00 0.00 65 1016.5
20260902143415 87 243 1.0 2.0 0.00 0.00 0.00 65 1016.4
20260902142910 87 254 2.0 4.0 0.00 0.00 0.00 65 1016.4
20260902142406 87 285 3.0 3.0 0.00 0.00 0.00 66 1016.2
20260902141902 86 66 1.0 2.0 0.00 0.00 0.00 67 1016.3
20260902141357 86 271 2.0 2.0 0.00 0.00 0.00 67 1016.4
20260902140856 86 348 2.0 2.0 0.00 0.00 0.00 67 1016.7
20260902140352 86 172 1.0 1.0 0.00 0.00 0.00 66 1016.3
20260902135851 86 204 4.0 6.0 0.00 0.00 0.00 66 1016.1
20260902135347 86 194 2.0 2.0 0.00 0.00 0.00 67 1016.3
20260902134846 85 33 1.0 1.0 0.00 0.00 0.00 68 1016.2
20260902134342 84 157 3.0 3.0 0.00 0.00 0.00 69 1016.3
20260902133837 84 169 2.0 3.0 0.00 0.00 0.00 69 1016.0
20260902133337 84 136 0.0 0.0 0.00 0.00 0.00 69 1016.2
20260902132832 84 73 3.0 4.0 0.00 0.00 0.00 70 1016.3
20260902132327 84 159 0.0 0.0 0.00 0.00 0.00 70 1016.4
20260902131817 83 175 2.0 3.0 0.00 0.00 0.00 70 1016.5
20260902131314 83 200 4.0 6.0 0.00 0.00 0.00 70 1016.5